This is the latest recevied weather packets stored in our database for station/object XE2G-31. If no packets are shown the sender has not sent any weather packets the latest 10 day(s).
| Time | Temp. | Humidity | Pressure | Rain* | Wind** | Luminosity | Snow |
|---|---|---|---|---|---|---|---|
| 1778237766 | 20° C | 83% | 871 hPa | - | - | - | - |
| 1778236819 | 20° C | 84% | 871 hPa | - | - | - | - |
| 1778235873 | 20° C | 84% | 871 hPa | - | - | - | - |
| 1778234926 | 19.44° C | 86% | 871 hPa | - | - | - | - |
| 1778233979 | 19.44° C | 86% | 871 hPa | - | - | - | - |
| 1778232085 | 20° C | 87% | 871 hPa | - | - | - | - |
| 1778231138 | 20° C | 90% | 871 hPa | - | - | - | - |
| 1778230192 | 20° C | 92% | 871 hPa | - | - | - | - |
| 1778229245 | 19.44° C | 93% | 871 hPa | - | - | - | - |
| 1778228298 | 20.56° C | 90% | 871 hPa | - | - | - | - |
| 1778227351 | 21.11° C | 86% | 871 hPa | - | - | - | - |
| 1778226404 | 21.67° C | 84% | 872 hPa | - | - | - | - |
| 1778225457 | 22.22° C | 85% | 871 hPa | - | - | - | - |
| 1778224511 | 22.22° C | 85% | 871 hPa | - | - | - | - |
| 1778223564 | 22.22° C | 85% | 871 hPa | - | - | - | - |
| 1778222617 | 22.78° C | 85% | 871 hPa | - | - | - | - |
| 1778221670 | 22.22° C | 85% | 872 hPa | - | - | - | - |
| 1778220723 | 22.22° C | 86% | 872 hPa | - | - | - | - |
| 1778219776 | 22.22° C | 87% | 872 hPa | - | - | - | - |
| 1778218830 | 22.22° C | 86% | 872 hPa | - | - | - | - |
| 1778217883 | 22.22° C | 88% | 872 hPa | - | - | - | - |
| 1778216936 | 22.22° C | 88% | 872 hPa | - | - | - | - |
| 1778215989 | 22.78° C | 76% | 871 hPa | - | - | - | - |
| 1778215042 | 23.33° C | 78% | 872 hPa | - | - | - | - |
| 1778214095 | 23.33° C | 80% | 872 hPa | - | - | - | - |
* Rain since midnight (hover to see other rain measurements)
** Current wind speed in m/s (hover to see current wind gust speed)